Location: Bieujac
(44.5398°N, 0.1549°W)
Time: 11:42:49
(UTC+00:00)

Cosmos 1898 Rocket - Pass Details

Date: 17 November 2019
Orbit: 753 x 785 km, 74.0° (Epoch: 11 December)

Event Time Altitude Azimuth Distance (km) Brightness Sun altitude
Exits shadow 05:21:37 24° 247° (WSW) 1,542 4.6 -17.3°
Maximum altitude 05:24:07 38° 299° (WNW) 1,156 3.9 -16.9°
Drops below altitude 10° 05:29:03 10° 7° (N) 2,331 6.0 -16.0°
Sets 05:31:37 0° 16° (NNE) 3,268 6.8 -15.6°
